User: anonymous
Location: Unspecified
(0.0000°N, 0.0000°E)
Time: 07:30:35
(UTC+00:00)
Language:

CANX 3A (UNIBRITE) - Orbit

View from above orbital plane
View from above orbital plane
View from above satellite
View from above satellite

Ground track
Ground track

The orbit data is extracted from the following two-line orbital elements,

1 39092U 13009G   14243.79528257  .00000023  00000-0  23924-4 0  4607
2 39092 098.6155 078.1015 0010469 083.8118 276.4248 14.34591274 79166
Epoch (UTC): 31 August 2014 19:05:12
Eccentricity: 0.0010469
inclination: 98.6155°
perigee height: 769 km
apogee height: 784 km
right ascension of ascending node: 78.1015°
argument of perigee: 83.8118°
revolutions per day: 14.34591274
mean anomaly at epoch: 276.4248°
orbit number at epoch: 7916

The dashed part of the orbit path shows where the satellite is in the earth's shadow,  

DLR